Location: Lima
(44.6384°N, 112.5920°W)
Time: 19:56:19
(UTC+00:00)

BlueWalker 3 - Visible Passes

Search period start: 30 November 2023 00:00
Search period end: 10 December 2023 00:00
Orbit: 489 x 504 km, 53.2° (Epoch: 29 November)

Date Brightness Start Highest point End Pass type
(mag) Time Alt. Az. Time Alt. Az. Time Alt. Az.
30 Nov 3.0 12:38:31 34° N 12:38:47 35° NNE 12:42:19 10° E visible
01 Dec 3.5 12:16:56 31° NE 12:16:56 31° NE 12:19:43 10° E visible
01 Dec 2.2 13:51:30 14° WNW 13:54:43 55° SW 13:58:27 10° SE visible
02 Dec 4.3 11:55:24 22° ENE 11:55:24 22° ENE 11:57:06 10° E visible
02 Dec 2.1 13:29:58 23° WNW 13:32:06 56° SW 13:35:50 10° SE visible
03 Dec 5.1 11:33:54 13° E 11:33:54 13° E 11:34:27 10° E visible
03 Dec 2.1 13:08:28 41° W 13:09:28 57° SW 13:13:12 10° SE visible
04 Dec 2.1 12:47:00 56° SSW 12:47:00 56° SSW 12:50:33 10° SE visible
05 Dec 3.3 12:25:36 33° SSE 12:25:36 33° SSE 12:27:53 10° SE visible
06 Dec 4.4 12:04:15 17° SE 12:04:15 17° SE 12:05:12 10° SE visible
